Latest Weather Observations for King Island Airport

IDT60801

Issued at 5:35 am EST Saturday 30 August 2014 (issued every 30 minutes, with the page automatically refreshed every 10 minutes)

About weather observations | Map of weather stations | Latest weather observations for TAS | Other Formats
Station Details ID: 098017 Name: KING ISLAND AIRPORT Lat: -39.88 Lon: 143.88 Height: 37.0 m
Data from the previous 72 hours. | See also: Recent months at King Island Airport
Date/Time
EST
Temp
°C
App
Temp
°C
Dew
Point
Rel
Hum
%
Delta-T
°C
Wind Press
QNH
hPa
Press
MSL
hPa
Rain
since 9 am
mm
Dir
 
Spd
km/h
Gust
km/h
Spd
kts
Gust
kts
30/05:30am 10.5 7.8 10.3 99 0.1 ENE 15 20 8 11 1026.6 1026.7 0.2
30/05:00am 10.3 7.5 10.1 99 0.1 ENE 15 19 8 10 1026.5 1026.6 0.2
30/04:30am 9.9 7.4 9.8 99 0.1 ENE 13 17 7 9 1026.4 1026.5 0.2
30/04:00am 9.8 7.3 9.7 99 0.0 ENE 13 17 7 9 1026.5 1026.6 0.2
30/03:30am 9.3 7.1 9.2 99 0.0 E 11 13 6 7 1026.7 1026.8 0.2
30/03:00am 9.5 7.3 9.4 99 0.0 E 11 15 6 8 1027.1 1027.2 0.2
30/02:30am 9.7 7.6 9.6 99 0.0 ENE 11 15 6 8 1027.3 1027.4 0.2
30/02:00am 10.0 7.2 9.9 99 0.1 ENE 15 19 8 10 1027.3 1027.4 0.2
30/01:30am 9.6 7.0 9.5 99 0.0 ENE 13 17 7 9 1027.5 1027.6 0.2
30/01:00am 7.8 4.8 7.5 98 0.1 E 13 15 7 8 1027.8 1027.9 0.2
30/12:54am 7.8 4.8 7.5 98 0.1 E 13 15 7 8 1027.9 1028.0 0.2
30/12:30am 7.9 5.3 7.6 98 0.1 E 11 13 6 7 1028.0 1028.1 0.2
30/12:24am 8.4 6.3 8.1 98 0.1 E 9 11 5 6 1028.0 1028.1 0.2
30/12:00am 8.7 7.0 8.4 98 0.1 E 7 7 4 4 1028.2 1028.3 0.2
 
Date/Time
EST
Temp
°C
App
Temp
°C
Dew
Point
Rel
Hum
%
Delta-T
°C
Wind Press
QNH
hPa
Press
MSL
hPa
Rain
since 9 am
mm
Dir
 
Spd
km/h
Gust
km/h
Spd
kts
Gust
kts
29/11:30pm 8.5 6.4 8.2 98 0.1 ESE 9 9 5 5 1028.5 1028.6 0.2
29/11:00pm 8.5 6.4 8.2 98 0.1 E 9 11 5 6 1028.7 1028.8 0.2
29/10:30pm 8.3 6.1 7.9 97 0.2 ESE 9 11 5 6 1028.9 1029.0 0.2
29/10:00pm 8.7 7.0 8.3 97 0.2 ESE 7 9 4 5 1029.0 1029.1 0.0
29/09:30pm 8.6 6.4 8.0 96 0.3 ESE 9 9 5 5 1028.9 1029.0 0.0
29/09:00pm 9.4 7.4 8.8 96 0.3 ESE 9 11 5 6 1029.1 1029.2 0.0
29/08:42pm 9.3 7.7 8.7 96 0.3 E 7 7 4 4 1029.0 1029.1 0.0
29/08:30pm 9.3 7.8 8.5 95 0.4 E 6 7 3 4 1028.9 1029.0 0.0
29/08:00pm 9.5 7.5 8.7 95 0.4 E 9 9 5 5 1028.9 1029.0 0.0
29/07:30pm 10.0 8.1 9.1 94 0.4 E 9 11 5 6 1028.9 1029.0 0.0
29/07:00pm 10.1 8.5 8.7 91 0.7 E 7 9 4 5 1028.9 1029.0 0.0
29/06:30pm 11.0 9.5 9.3 89 0.9 ENE 7 7 4 4 1028.8 1028.9 0.0
29/06:00pm 11.6 9.8 9.5 87 1.1 E 9 11 5 6 1028.5 1028.6 0.0
29/05:30pm 12.8 10.4 10.2 84 1.3 E 13 15 7 8 1028.5 1028.6 0.0
29/05:00pm 13.5 10.4 10.3 81 1.7 E 17 19 9 10 1028.3 1028.4 0.0
29/04:30pm 14.4 12.1 10.4 77 2.1 E 13 15 7 8 1028.3 1028.4 0.0
29/04:00pm 15.0 14.4 11.8 81 1.7 NE 6 11 3 6 1028.2 1028.3 0.0
29/03:30pm 15.0 13.4 11.6 80 1.8 NW 11 15 6 8 1028.4 1028.5 0.0
29/03:00pm 14.6 13.0 11.4 81 1.7 NW 11 15 6 8 1028.3 1028.4 0.0
29/02:30pm 14.9 12.9 11.5 80 1.8 NW 13 17 7 9 1028.4 1028.5 0.0
29/02:00pm 15.4 13.5 11.8 79 1.9 NW 13 17 7 9 1028.6 1028.7 0.0
29/01:30pm 15.4 12.9 11.2 76 2.2 NNW 15 19 8 10 1028.6 1028.7 0.0
29/01:00pm 14.9 12.6 10.5 75 2.3 NNW 13 17 7 9 1028.8 1028.9 0.0
29/12:30pm 15.5 14.5 10.3 71 2.7 E 6 11 3 6 1029.2 1029.3 0.0
29/12:00pm 15.3 13.0 10.3 72 2.6 E 13 19 7 10 1029.5 1029.6 0.0
29/11:30am 14.8 12.1 10.4 75 2.3 ENE 15 19 8 10 1029.6 1029.7 0.0
29/11:00am 14.5 12.4 11.1 80 1.8 ENE 13 15 7 8 1029.8 1029.9 0.0
29/10:57am 14.9 13.3 11.7 81 1.7 ENE 11 15 6 8 1029.9 1030.0 0.0
29/10:45am 14.7 12.9 12.0 84 1.5 E 13 15 7 8 1030.0 1030.1 0.0
29/10:30am 14.4 13.1 12.4 88 1.1 E 11 15 6 8 1030.0 1030.1 0.0
29/10:00am 14.1 13.1 13.5 96 0.3 E 11 13 6 7 1030.0 1030.1 0.0
29/09:30am 12.9 12.0 12.6 98 0.2 E 9 13 5 7 1030.2 1030.3 0.0
29/09:00am 12.5 11.9 12.3 99 0.1 E 7 7 4 4 1030.3 1030.4 0.2
29/08:30am 10.7 9.8 10.7 100 0.0 ESE 6 7 3 4 1030.0 1030.1 0.2
29/08:00am 8.6 8.3 8.6 100 0.0 CALM 0 0 0 0 1029.8 1029.9 0.2
29/07:44am 7.0 6.3 7.0 100 0.0 CALM 0 0 0 0 1029.7 1029.8 0.2
29/07:30am 5.7 4.7 5.6 99 0.0 CALM 0 0 0 0 1029.6 1029.7 0.2
29/07:25am 5.6 4.6 5.5 99 0.0 CALM 0 0 0 0 1029.5 1029.6 0.2
29/07:07am 5.4 4.3 5.3 99 0.0 CALM 0 0 0 0 1029.2 1029.3 0.2
29/07:00am 6.0 4.3 5.9 99 0.0 SE 4 6 2 3 1029.1 1029.2 0.2
29/06:30am 5.9 3.6 5.8 99 0.0 ESE 7 9 4 5 1028.8 1028.9 0.2
29/06:08am 5.9 3.2 5.8 99 0.0 ESE 9 11 5 6 1028.5 1028.6 0.2
29/06:00am 6.1 3.5 6.0 99 0.0 ESE 9 9 5 5 1028.4 1028.5 0.2
29/05:30am 5.7 3.4 5.6 99 0.0 ESE 7 9 4 5 1028.4 1028.5 0.2
29/05:18am 5.8 4.8 5.7 99 0.0 CALM 0 0 0 0 1028.4 1028.5 0.2
29/05:00am 5.8 4.8 5.7 99 0.0 CALM 0 0 0 0 1028.4 1028.5 0.2
29/04:30am 5.8 4.8 5.5 98 0.1 CALM 0 0 0 0 1028.4 1028.5 0.2
29/04:00am 6.2 4.1 5.9 98 0.1 ESE 6 7 3 4 1028.3 1028.4 0.2
29/03:53am 6.2 4.1 5.9 98 0.1 ESE 6 7 3 4 1028.1 1028.2 0.2
29/03:45am 6.6 4.4 6.3 98 0.1 ESE 7 9 4 5 1028.1 1028.2 0.2
29/03:30am 8.4 6.8 8.1 98 0.1 ESE 6 7 3 4 1028.1 1028.2 0.2
29/03:00am 8.9 7.3 8.6 98 0.1 ESE 7 7 4 4 1028.0 1028.1 0.2
29/02:57am 8.8 7.1 8.5 98 0.1 ESE 7 9 4 5 1028.0 1028.1 0.2
29/02:42am 8.7 7.2 8.4 98 0.1 ESE 6 7 3 4 1028.0 1028.1 0.0
29/02:34am 8.8 7.3 8.5 98 0.1 ESE 6 7 3 4 1028.1 1028.2 0.0
29/02:30am 8.5 6.8 8.2 98 0.1 ESE 7 9 4 5 1028.1 1028.2 0.0
29/02:14am 8.0 6.1 7.6 97 0.2 ESE 7 11 4 6 1028.3 1028.4 0.0
29/02:08am 8.9 7.3 8.6 98 0.1 ESE 7 9 4 5 1028.3 1028.4 0.0
29/02:05am 8.8 7.1 8.4 97 0.2 ESE 7 9 4 5 1028.4 1028.5 0.0
29/02:00am 8.4 6.6 8.0 97 0.2 ESE 7 9 4 5 1028.4 1028.5 0.0
29/01:38am 9.1 7.5 8.6 97 0.2 ESE 7 9 4 5 1028.4 1028.5 0.0
29/01:30am 8.7 7.0 8.3 97 0.2 ESE 7 7 4 4 1028.4 1028.5 0.0
29/01:00am 9.0 7.0 8.5 97 0.2 ESE 9 11 5 6 1028.7 1028.8 0.0
29/12:36am 9.4 8.0 8.8 96 0.3 E 6 7 3 4 1028.9 1029.0 0.0
29/12:30am 9.8 9.3 9.2 96 0.3 E 2 7 1 4 1028.9 1029.0 0.0
29/12:17am 9.7 9.1 9.1 96 0.3 E 2 6 1 3 1028.9 1029.0 0.0
29/12:00am 9.7 8.4 9.1 96 0.3 E 6 6 3 3 1029.0 1029.1 0.0
 
Date/Time
EST
Temp
°C
App
Temp
°C
Dew
Point
Rel
Hum
%
Delta-T
°C
Wind Press
QNH
hPa
Press
MSL
hPa
Rain
since 9 am
mm
Dir
 
Spd
km/h
Gust
km/h
Spd
kts
Gust
kts
28/11:44pm 9.4 8.8 8.8 96 0.3 E 2 7 1 4 1028.8 1028.9 0.0
28/11:41pm 9.3 8.6 8.7 96 0.3 ENE 2 7 1 4 1028.8 1028.9 0.0
28/11:30pm 9.3 9.0 8.5 95 0.4 CALM 0 0 0 0 1028.7 1028.8 0.0
28/11:00pm 9.5 8.1 8.7 95 0.4 ENE 6 6 3 3 1028.7 1028.8 0.0
28/10:30pm 9.2 7.5 8.3 94 0.4 ENE 7 9 4 5 1028.8 1028.9 0.0
28/10:00pm 9.8 9.5 8.7 93 0.5 CALM 0 0 0 0 1028.8 1028.9 0.0
28/09:30pm 10.3 10.1 9.1 92 0.6 CALM 0 0 0 0 1028.9 1029.0 0.0
28/09:00pm 10.8 10.7 9.6 92 0.6 CALM 0 0 0 0 1029.0 1029.1 0.0
28/08:30pm 10.7 10.6 9.5 92 0.6 CALM 0 0 0 0 1028.8 1028.9 0.0
28/08:00pm 10.2 8.8 8.8 91 0.7 E 6 6 3 3 1028.6 1028.7 0.0
28/07:30pm 10.6 9.2 9.0 90 0.8 E 6 7 3 4 1028.4 1028.5 0.0
28/07:00pm 10.3 8.3 8.6 89 0.8 ESE 9 11 5 6 1028.2 1028.3 0.0
28/06:30pm 11.1 10.8 8.8 86 1.1 CALM 0 0 0 0 1028.0 1028.1 0.0
28/06:00pm 11.9 10.3 8.9 82 1.5 NNW 7 9 4 5 1027.8 1027.9 0.0
28/05:30pm 12.6 10.7 8.9 78 1.9 NNW 9 9 5 5 1027.7 1027.8 0.0
28/05:00pm 13.1 10.7 8.8 75 2.1 NW 11 13 6 7 1027.6 1027.7 0.0
28/04:30pm 14.1 12.1 8.7 70 2.7 NW 9 13 5 7 1027.5 1027.6 0.0
28/04:00pm 14.6 12.6 8.8 68 2.9 WNW 9 13 5 7 1027.4 1027.5 0.0
28/03:30pm 14.9 12.9 8.8 67 3.1 NW 9 13 5 7 1027.4 1027.5 0.0
28/03:00pm 14.8 12.8 8.7 67 3.1 W 9 15 5 8 1027.5 1027.6 0.0
28/02:30pm 15.1 13.2 9.2 68 3.0 W 9 13 5 7 1027.4 1027.5 0.0
28/02:00pm 14.5 11.0 8.7 68 2.9 WNW 17 19 9 10 1027.6 1027.7 0.0
28/01:30pm 14.6 11.6 9.2 70 2.8 NW 15 19 8 10 1027.7 1027.8 0.0
28/01:00pm 14.6 11.5 9.0 69 2.8 NW 15 19 8 10 1028.0 1028.1 0.0
28/12:30pm 14.3 11.2 8.9 70 2.7 NNW 15 20 8 11 1028.2 1028.3 0.0
28/12:00pm 14.1 10.9 8.5 69 2.8 NNW 15 22 8 12 1028.6 1028.7 0.0
28/11:30am 14.1 11.3 8.7 70 2.7 NW 13 17 7 9 1028.9 1029.0 0.0
28/11:00am 13.6 10.3 8.2 70 2.7 N 15 20 8 11 1029.1 1029.2 0.0
28/10:30am 13.6 10.9 8.9 73 2.4 N 13 17 7 9 1029.3 1029.4 0.0
28/10:00am 13.1 9.9 8.6 74 2.2 N 15 20 8 11 1029.5 1029.6 0.0
28/09:30am 12.1 9.8 8.9 81 1.6 N 11 15 6 8 1029.5 1029.6 0.0
28/09:00am 11.7 10.1 10.1 90 0.8 N 9 13 5 7 1029.5 1029.6 0.0
28/08:30am 11.1 11.2 10.3 95 0.4 CALM 0 7 0 4 1029.4 - 0.0
28/08:00am 10.4 9.7 9.9 97 0.3 NNE 4 7 2 4 1029.2 1029.3 0.0
28/07:30am 9.9 9.8 9.6 98 0.2 CALM 0 0 0 0 1028.9 - 0.0
28/07:00am 10.0 8.3 9.7 98 0.1 NE 9 9 5 5 1028.8 1028.9 0.0
28/06:31am 10.0 10.0 9.7 98 0.2 CALM 0 0 0 0 1028.5 - 0.0
28/06:30am 10.0 10.0 9.7 98 0.2 CALM 0 0 0 0 1028.5 - 0.0
28/06:00am 10.0 10.0 9.7 98 0.1 CALM 0 0 0 0 1028.4 1028.5 0.0
28/05:30am 10.0 10.0 9.7 98 0.2 CALM 0 0 0 0 1028.2 - 0.0
28/05:00am 10.0 9.6 9.7 98 0.1 NNE 2 6 1 3 1028.1 1028.2 0.0
28/04:30am 9.9 9.8 9.6 98 0.2 CALM 0 0 0 0 1028.1 - 0.0
28/04:00am 9.7 9.6 9.4 98 0.1 CALM 0 6 0 3 1028.1 1028.2 0.0
28/03:30am 9.5 9.0 9.2 98 0.1 ENE 2 7 1 4 1028.1 - 0.0
28/03:00am 9.3 8.7 9.0 98 0.1 E 2 6 1 3 1028.3 1028.4 0.0
28/02:34am 9.0 8.0 8.7 98 0.1 E 4 6 2 3 1028.4 - 0.0
28/02:30am 9.0 8.3 8.7 98 0.1 E 2 6 1 3 1028.4 - 0.0
28/02:12am 8.6 7.1 8.3 98 0.1 E 6 7 3 4 1028.4 - 0.0
28/02:00am 8.6 7.5 8.3 98 0.1 E 4 7 2 4 1028.4 1028.5 0.0
28/01:56am 8.6 7.1 8.3 98 0.1 E 6 7 3 4 1028.5 - 0.0
28/01:30am 8.4 8.0 8.1 98 0.1 CALM 0 0 0 0 1028.4 - 0.0
28/01:28am 8.4 8.0 8.1 98 0.1 CALM 0 0 0 0 1028.4 - 0.0
28/01:01am 8.2 7.7 7.8 97 0.2 CALM 0 0 0 0 1028.5 - 0.0
28/01:00am 8.2 7.7 7.8 97 0.2 CALM 0 0 0 0 1028.5 1028.6 0.0
28/12:30am 8.2 7.7 7.8 97 0.2 CALM 0 0 0 0 1028.6 - 0.0
28/12:14am 8.5 8.1 8.1 97 0.2 CALM 0 0 0 0 1028.6 - 0.0
28/12:00am 8.8 8.4 8.4 97 0.2 CALM 0 0 0 0 1028.8 1028.9 0.0
 
Date/Time
EST
Temp
°C
App
Temp
°C
Dew
Point
Rel
Hum
%
Delta-T
°C
Wind Press
QNH
hPa
Press
MSL
hPa
Rain
since 9 am
mm
Dir
 
Spd
km/h
Gust
km/h
Spd
kts
Gust
kts
27/11:37pm 8.9 8.5 8.3 96 0.3 CALM 0 0 0 0 1028.7 - 0.0
27/11:30pm 8.9 8.5 8.3 96 0.3 CALM 0 0 0 0 1028.8 - 0.0
27/11:28pm 8.9 8.5 8.3 96 0.3 CALM 0 0 0 0 1028.8 - 0.0
27/11:00pm 9.4 9.1 8.8 96 0.3 CALM 0 0 0 0 1028.7 1028.8 0.0
27/10:53pm 9.5 9.2 8.7 95 0.4 CALM 0 0 0 0 1028.7 - 0.0
27/10:46pm 9.7 9.5 8.9 95 0.4 CALM 0 0 0 0 1028.7 - 0.0
27/10:30pm 9.9 9.7 9.1 95 0.4 CALM 0 0 0 0 1028.8 - 0.0
27/10:00pm 10.4 10.3 9.5 94 0.4 CALM 0 0 0 0 1028.8 1028.9 0.0
27/09:46pm 10.5 10.4 9.6 94 0.5 CALM 0 0 0 0 1028.7 - 0.0
27/09:30pm 10.8 10.8 9.7 93 0.6 CALM 0 0 0 0 1028.7 - 0.0
27/09:00pm 11.2 11.2 9.9 92 0.7 CALM 0 0 0 0 1028.8 1028.9 0.0
27/08:30pm 11.6 11.7 10.2 91 0.7 CALM 0 0 0 0 1028.5 - 0.0
27/08:00pm 12.0 10.8 10.4 90 0.8 W 7 9 4 5 1028.4 1028.5 0.0
27/07:30pm 12.3 11.2 10.5 89 0.9 W 7 9 4 5 1028.4 - 0.0
27/07:00pm 12.5 10.7 10.9 90 0.8 WNW 11 13 6 7 1028.3 1028.4 0.0
27/06:30pm 12.6 10.8 10.8 89 0.9 WNW 11 13 6 7 1028.1 - 0.0
27/06:00pm 12.8 11.4 10.9 88 1.0 WNW 9 13 5 7 1027.9 1028.0 0.0
27/05:30pm 13.0 10.9 11.1 88 1.0 WNW 13 17 7 9 1027.7 - 0.0
27/05:00pm 13.3 10.3 10.8 85 1.3 WNW 17 19 9 10 1027.4 1027.5 0.0
27/04:30pm 14.0 11.4 10.8 81 1.7 WNW 15 17 8 9 1027.0 - 0.0
27/04:00pm 14.7 13.1 10.1 74 2.4 NW 9 13 5 7 1026.9 1027.0 0.0
27/03:30pm 14.9 12.8 9.7 71 2.7 W 11 17 6 9 1027.0 - 0.0
27/03:00pm 15.6 14.9 9.9 69 3.0 WSW 4 7 2 4 1027.1 1027.2 0.0
27/02:30pm 15.0 13.9 9.8 71 2.7 N 6 11 3 6 1026.8 - 0.0
27/02:00pm 14.0 12.1 10.6 80 1.8 W 11 13 6 7 1027.2 1027.3 0.0
27/01:30pm 14.2 12.1 11.2 82 1.6 WNW 13 15 7 8 1027.4 - 0.0
27/01:00pm 13.6 10.7 10.9 84 1.4 WNW 17 20 9 11 1027.8 1027.9 0.0
27/12:30pm 13.8 11.7 11.3 85 1.3 WNW 13 17 7 9 1027.8 - 0.0
27/12:00pm 13.9 12.5 10.9 82 1.6 NW 9 13 5 7 1028.0 1028.1 0.0
27/11:30am 13.8 12.8 11.1 84 1.4 NW 7 13 4 7 1028.1 - 0.0
27/11:00am 13.5 12.3 11.7 89 1.0 N 9 13 5 7 1028.2 1028.3 0.0
27/10:30am 13.4 12.9 12.5 94 0.5 N 7 9 4 5 1028.1 - 0.0
27/10:26am 13.3 12.9 12.4 94 0.5 NNW 6 9 3 5 1028.1 - 0.0
27/10:00am 12.8 11.8 12.2 96 0.3 WNW 9 11 5 6 1028.3 1028.4 0.0
27/09:30am 12.5 11.5 12.2 98 0.2 N 9 11 5 6 1028.2 - 0.0
27/09:00am 12.1 11.4 12.1 100 0.0 NNE 7 11 4 6 1027.8 1027.9 0.2
27/08:30am 11.2 10.4 11.2 100 0.0 E 6 9 3 5 1027.7 - 0.2
27/08:18am 10.8 9.4 10.8 100 0.0 E 9 11 5 6 1027.8 - 0.2
27/08:00am 10.3 9.1 10.3 100 0.0 E 7 9 4 5 1027.6 1027.7 0.2
27/07:30am 9.4 8.0 9.4 100 0.0 E 7 7 4 4 1027.4 - 0.2
27/07:28am 9.4 8.0 9.4 100 0.0 E 7 7 4 4 1027.4 - 0.2
27/07:00am 8.0 5.8 7.9 99 0.0 E 9 11 5 6 1027.1 1027.2 0.2
27/06:55am 8.2 6.1 8.1 99 0.0 ESE 9 11 5 6 1027.0 - 0.2
27/06:30am 9.3 7.5 9.3 100 0.0 ESE 9 9 5 5 1027.0 - 0.2
27/06:27am 9.1 7.2 9.1 100 0.0 ESE 9 9 5 5 1026.9 - 0.2
27/06:26am 9.0 7.1 9.0 100 0.0 ESE 9 11 5 6 1026.9 - 0.2
27/06:00am 7.9 4.9 7.8 99 0.0 E 13 13 7 7 1026.5 1026.6 0.2
27/05:40am 8.7 6.7 8.6 99 0.0 ESE 9 11 5 6 1026.5 - 0.2

Other Formats:

Comma delimited format used in spreadsheet applications
http://www.bom.gov.au/fwo/IDT60801/IDT60801.94850.axf

JavaScript Object Notation format (JSON) in row-major order
http://www.bom.gov.au/fwo/IDT60801/IDT60801.94850.json